Time,TemperatureF,DewpointF,PressureIn,WindDirection,WindDirectionDegrees,WindSpeedMPH,WindSpeedGustMPH,Humidity,HourlyPrecipIn,Conditions,Clouds,dailyrainin,SoftwareType,DateUTC
2013-10-28 00:00:00,53.4,49.6,30.05,North,5,0.0,0.0,87,0.00,,,0.00,Wunderground v.1.15,2013-10-28 04:00:00,
2013-10-28 00:01:00,53.4,49.6,30.05,North,5,0.0,1.0,87,0.00,,,0.00,Wunderground v.1.15,2013-10-28 04:01:00,
2013-10-28 00:02:00,53.4,49.6,30.05,North,5,0.0,1.0,87,0.00,,,0.00,Wunderground v.1.15,2013-10-28 04:02:00,
2013-10-28 00:04:00,53.3,49.5,30.05,North,5,0.0,1.0,87,0.00,,,0.00,Wunderground v.1.15,2013-10-28 04:04:00,
2013-10-28 00:09:00,53.2,49.4,30.05,North,5,0.0,1.0,87,0.00,,,0.00,Wunderground v.1.15,2013-10-28 04:09:00,
2013-10-28 00:10:00,53.2,49.4,30.05,North,5,0.0,0.0,87,0.00,,,0.00,Wunderground v.1.15,2013-10-28 04:10:00,
2013-10-28 00:13:00,53.1,49.3,30.05,North,5,0.0,0.0,87,0.00,,,0.00,Wunderground v.1.15,2013-10-28 04:13:00,
2013-10-28 00:17:00,52.9,49.1,30.05,North,5,0.0,0.0,87,0.00,,,0.00,Wunderground v.1.15,2013-10-28 04:17:00,
2013-10-28 00:23:00,52.7,49.2,30.05,North,5,0.0,0.0,88,0.00,,,0.00,Wunderground v.1.15,2013-10-28 04:23:00,
2013-10-28 00:28:00,52.6,49.1,30.05,North,5,0.0,0.0,88,0.00,,,0.00,Wunderground v.1.15,2013-10-28 04:28:00,
2013-10-28 00:34:00,52.4,48.9,30.04,North,5,0.0,0.0,88,0.00,,,0.00,Wunderground v.1.15,2013-10-28 04:34:00,
2013-10-28 00:39:00,52.2,49.1,30.04,North,5,0.0,0.0,89,0.00,,,0.00,Wunderground v.1.15,2013-10-28 04:39:00,
2013-10-28 00:45:00,52.1,49.3,30.05,North,5,0.0,0.0,90,0.00,,,0.00,Wunderground v.1.15,2013-10-28 04:45:00,
2013-10-28 00:51:00,52.0,49.2,30.04,North,5,0.0,0.0,90,0.00,,,0.00,Wunderground v.1.15,2013-10-28 04:51:00,
2013-10-28 00:57:00,51.9,49.1,30.04,North,5,0.0,1.0,90,0.00,,,0.00,Wunderground v.1.15,2013-10-28 04:57:00,
2013-10-28 01:02:00,51.9,49.4,30.05,North,5,0.0,0.0,91,0.00,,,0.00,Wunderground v.1.15,2013-10-28 05:02:00,
2013-10-28 01:07:00,51.9,49.4,30.04,North,5,0.0,0.0,91,0.00,,,0.00,Wunderground v.1.15,2013-10-28 05:07:00,
2013-10-28 01:13:00,51.9,49.4,30.04,North,5,0.0,0.0,91,0.00,,,0.00,Wunderground v.1.15,2013-10-28 05:13:00,
2013-10-28 01:18:00,51.9,49.4,30.03,North,5,0.0,0.0,91,0.00,,,0.00,Wunderground v.1.15,2013-10-28 05:18:00,
2013-10-28 01:23:00,51.9,49.4,30.03,North,5,0.0,0.0,91,0.00,,,0.00,Wunderground v.1.15,2013-10-28 05:23:00,
2013-10-28 01:29:00,52.0,49.7,30.03,North,5,0.0,0.0,92,0.00,,,0.00,Wunderground v.1.15,2013-10-28 05:29:00,
2013-10-28 01:35:00,52.1,49.8,30.03,North,5,0.0,0.0,92,0.00,,,0.00,Wunderground v.1.15,2013-10-28 05:35:00,
2013-10-28 01:41:00,52.2,49.9,30.04,North,5,0.0,0.0,92,0.00,,,0.00,Wunderground v.1.15,2013-10-28 05:41:00,
2013-10-28 01:48:00,52.2,49.7,30.03,North,5,0.0,0.0,91,0.00,,,0.00,Wunderground v.1.15,2013-10-28 05:48:00,
2013-10-28 01:54:00,52.2,49.7,30.03,North,5,0.0,0.0,91,0.00,,,0.00,Wunderground v.1.15,2013-10-28 05:54:00,
2013-10-28 01:59:00,52.2,49.7,30.03,North,5,0.0,0.0,91,0.00,,,0.00,Wunderground v.1.15,2013-10-28 05:59:00,
2013-10-28 02:05:00,52.2,49.7,30.03,North,5,0.0,0.0,91,0.00,,,0.00,Wunderground v.1.15,2013-10-28 06:05:00,
2013-10-28 02:11:00,52.2,49.7,30.03,North,5,0.0,0.0,91,0.00,,,0.00,Wunderground v.1.15,2013-10-28 06:11:00,
2013-10-28 02:17:00,52.3,49.8,30.03,North,5,0.0,0.0,91,0.00,,,0.00,Wunderground v.1.15,2013-10-28 06:17:00,
2013-10-28 02:22:00,52.3,49.8,30.03,North,5,0.0,0.0,91,0.00,,,0.00,Wunderground v.1.15,2013-10-28 06:22:00,
2013-10-28 02:32:00,52.4,49.8,30.04,North,5,0.0,0.0,91,0.00,,,0.00,Wunderground v.1.15,2013-10-28 06:32:00,
2013-10-28 02:37:00,52.5,49.7,30.04,North,5,0.0,0.0,90,0.00,,,0.00,Wunderground v.1.15,2013-10-28 06:37:00,
2013-10-28 02:43:00,52.5,49.7,30.03,North,5,0.0,0.0,90,0.00,,,0.00,Wunderground v.1.15,2013-10-28 06:43:00,
2013-10-28 03:48:00,52.3,49.8,30.03,North,5,0.0,0.0,91,0.00,,,0.00,Wunderground v.1.15,2013-10-28 07:48:00,
2013-10-28 03:54:00,52.3,49.5,30.03,North,5,0.0,0.0,90,0.00,,,0.00,Wunderground v.1.15,2013-10-28 07:54:00,
2013-10-28 04:00:00,52.4,49.6,30.03,North,5,0.0,0.0,90,0.00,,,0.00,Wunderground v.1.15,2013-10-28 08:00:00,
2013-10-28 04:06:00,52.5,49.7,30.03,North,5,0.0,0.0,90,0.00,,,0.00,Wunderground v.1.15,2013-10-28 08:06:00,
2013-10-28 04:11:00,52.6,49.8,30.04,North,5,0.0,0.0,90,0.00,,,0.00,Wunderground v.1.15,2013-10-28 08:11:00,
2013-10-28 04:17:00,52.6,49.8,30.04,North,5,0.0,0.0,90,0.00,,,0.00,Wunderground v.1.15,2013-10-28 08:17:00,
2013-10-28 04:23:00,52.5,49.7,30.05,North,5,0.0,0.0,90,0.00,,,0.00,Wunderground v.1.15,2013-10-28 08:23:00,
2013-10-28 04:28:00,52.4,49.8,30.05,North,5,0.0,0.0,91,0.00,,,0.00,Wunderground v.1.15,2013-10-28 08:28:00,
2013-10-28 04:34:00,52.3,49.8,30.05,North,5,0.0,0.0,91,0.00,,,0.00,Wunderground v.1.15,2013-10-28 08:34:00,
2013-10-28 04:40:00,52.3,49.8,30.05,North,5,0.0,0.0,91,0.00,,,0.00,Wunderground v.1.15,2013-10-28 08:40:00,
2013-10-28 04:48:00,52.3,50.0,30.05,North,5,0.0,0.0,92,0.00,,,0.00,Wunderground v.1.15,2013-10-28 08:48:00,
2013-10-28 04:54:00,52.3,50.0,30.06,North,5,0.0,0.0,92,0.00,,,0.00,Wunderground v.1.15,2013-10-28 08:54:00,
2013-10-28 05:01:00,52.3,50.0,30.06,North,5,0.0,0.0,92,0.00,,,0.00,Wunderground v.1.15,2013-10-28 09:01:00,
2013-10-28 05:07:00,52.2,49.9,30.06,North,5,0.0,0.0,92,0.00,,,0.01,Wunderground v.1.15,2013-10-28 09:07:00,
2013-10-28 05:13:00,52.2,50.2,30.06,North,5,0.0,0.0,93,0.00,,,0.01,Wunderground v.1.15,2013-10-28 09:13:00,
2013-10-28 05:19:00,52.2,50.2,30.06,North,5,0.0,0.0,93,0.06,,,0.02,Wunderground v.1.15,2013-10-28 09:19:00,
2013-10-28 05:24:00,52.2,50.5,30.06,North,5,0.0,0.0,94,0.10,,,0.03,Wunderground v.1.15,2013-10-28 09:24:00,
2013-10-28 05:30:00,52.2,50.5,30.07,North,5,0.0,0.0,94,0.12,,,0.04,Wunderground v.1.15,2013-10-28 09:30:00,
2013-10-28 05:35:00,52.1,50.4,30.07,North,5,0.0,0.0,94,0.09,,,0.05,Wunderground v.1.15,2013-10-28 09:35:00,
2013-10-28 05:40:00,52.1,50.4,30.07,North,5,0.0,0.0,94,0.09,,,0.06,Wunderground v.1.15,2013-10-28 09:40:00,
2013-10-28 05:48:00,52.0,50.3,30.07,North,5,0.0,1.0,94,0.06,,,0.06,Wunderground v.1.15,2013-10-28 09:48:00,
2013-10-28 05:54:00,51.9,50.2,30.07,North,360,0.0,1.0,94,0.04,,,0.06,Wunderground v.1.15,2013-10-28 09:54:00,
2013-10-28 06:00:00,51.9,50.5,30.08,North,360,0.0,0.0,95,0.00,,,0.06,Wunderground v.1.15,2013-10-28 10:00:00,
2013-10-28 06:06:00,51.9,50.5,30.08,North,360,0.0,0.0,95,0.00,,,0.07,Wunderground v.1.15,2013-10-28 10:06:00,
2013-10-28 06:11:00,51.9,50.5,30.08,North,360,0.0,0.0,95,0.00,,,0.07,Wunderground v.1.15,2013-10-28 10:11:00,
2013-10-28 06:17:00,51.9,50.2,30.08,NW,310,0.0,0.0,94,0.00,,,0.07,Wunderground v.1.15,2013-10-28 10:17:00,
2013-10-28 06:23:00,51.9,50.2,30.08,NW,310,0.0,0.0,94,0.00,,,0.07,Wunderground v.1.15,2013-10-28 10:23:00,
2013-10-28 06:29:00,51.9,50.2,30.08,NW,310,0.0,0.0,94,0.00,,,0.08,Wunderground v.1.15,2013-10-28 10:29:00,
2013-10-28 06:35:00,51.9,50.5,30.08,NW,311,0.0,2.0,95,0.00,,,0.08,Wunderground v.1.15,2013-10-28 10:35:00,
2013-10-28 06:40:00,51.9,50.5,30.09,NW,311,0.0,0.0,95,0.00,,,0.08,Wunderground v.1.15,2013-10-28 10:40:00,
2013-10-28 06:48:00,51.9,50.5,30.08,NW,311,0.0,0.0,95,0.00,,,0.08,Wunderground v.1.15,2013-10-28 10:48:00,
2013-10-28 06:54:00,51.8,50.1,30.09,NW,311,0.0,0.0,94,0.00,,,0.08,Wunderground v.1.15,2013-10-28 10:54:00,
2013-10-28 06:59:00,51.8,50.1,30.08,NW,311,0.0,1.0,94,0.00,,,0.09,Wunderground v.1.15,2013-10-28 10:59:00,
2013-10-28 07:05:00,51.8,50.1,30.08,NW,311,0.0,0.0,94,0.00,,,0.09,Wunderground v.1.15,2013-10-28 11:05:00,
2013-10-28 07:11:00,51.8,50.4,30.08,NW,311,0.0,0.0,95,0.00,,,0.09,Wunderground v.1.15,2013-10-28 11:11:00,
2013-10-28 07:17:00,51.8,50.4,30.08,NW,311,0.0,0.0,95,0.00,,,0.10,Wunderground v.1.15,2013-10-28 11:17:00,
2013-10-28 07:22:00,51.7,50.3,30.08,NW,311,0.0,0.0,95,0.00,,,0.10,Wunderground v.1.15,2013-10-28 11:22:00,
2013-10-28 07:28:00,51.7,50.3,30.09,NW,311,0.0,0.0,95,0.00,,,0.10,Wunderground v.1.15,2013-10-28 11:28:00,
2013-10-28 07:34:00,51.6,50.2,30.08,NW,311,0.0,0.0,95,0.00,,,0.10,Wunderground v.1.15,2013-10-28 11:34:00,
2013-10-28 07:40:00,51.5,50.1,30.09,NW,311,0.0,1.0,95,0.00,,,0.11,Wunderground v.1.15,2013-10-28 11:40:00,
2013-10-28 07:45:00,51.5,50.1,30.09,NW,311,0.0,1.0,95,0.00,,,0.11,Wunderground v.1.15,2013-10-28 11:45:00,
2013-10-28 07:51:00,51.4,50.0,30.09,NW,311,0.0,0.0,95,0.00,,,0.11,Wunderground v.1.15,2013-10-28 11:51:00,
2013-10-28 07:56:00,51.4,50.0,30.09,NW,311,0.0,1.0,95,0.00,,,0.11,Wunderground v.1.15,2013-10-28 11:56:00,
2013-10-28 08:01:00,51.4,50.0,30.09,NW,311,0.0,0.0,95,0.00,,,0.12,Wunderground v.1.15,2013-10-28 12:01:00,
2013-10-28 08:07:00,51.3,49.9,30.09,NW,311,0.0,1.0,95,0.00,,,0.12,Wunderground v.1.15,2013-10-28 12:07:00,
2013-10-28 08:12:00,51.3,49.9,30.09,NW,311,0.0,0.0,95,0.00,,,0.12,Wunderground v.1.15,2013-10-28 12:12:00,
2013-10-28 08:17:00,51.3,49.9,30.09,NW,311,0.0,0.0,95,0.00,,,0.12,Wunderground v.1.15,2013-10-28 12:17:00,
2013-10-28 08:22:00,51.3,49.9,30.10,NW,311,0.0,0.0,95,0.00,,,0.12,Wunderground v.1.15,2013-10-28 12:22:00,
2013-10-28 08:27:00,51.3,50.2,30.10,NW,311,0.0,0.0,96,0.00,,,0.12,Wunderground v.1.15,2013-10-28 12:27:00,
2013-10-28 08:32:00,51.4,50.3,30.10,NW,311,0.0,0.0,96,0.00,,,0.12,Wunderground v.1.15,2013-10-28 12:32:00,
2013-10-28 08:37:00,51.3,50.2,30.10,NW,311,0.0,1.0,96,0.00,,,0.12,Wunderground v.1.15,2013-10-28 12:37:00,
2013-10-28 08:43:00,51.3,50.2,30.10,NW,311,0.0,0.0,96,0.00,,,0.12,Wunderground v.1.15,2013-10-28 12:43:00,
2013-10-28 08:49:00,51.2,49.8,30.11,NW,311,0.0,0.0,95,0.00,,,0.12,Wunderground v.1.15,2013-10-28 12:49:00,
2013-10-28 08:54:00,51.2,50.1,30.11,NW,311,0.0,0.0,96,0.00,,,0.12,Wunderground v.1.15,2013-10-28 12:54:00,
2013-10-28 08:59:00,51.2,50.1,30.11,NW,311,0.0,1.0,96,0.00,,,0.12,Wunderground v.1.15,2013-10-28 12:59:00,
2013-10-28 09:04:00,51.2,50.1,30.11,NW,311,0.0,1.0,96,0.00,,,0.12,Wunderground v.1.15,2013-10-28 13:04:00,
2013-10-28 09:10:00,51.2,50.1,30.12,NW,311,0.0,0.0,96,0.00,,,0.12,Wunderground v.1.15,2013-10-28 13:10:00,
2013-10-28 09:15:00,51.1,50.0,30.12,NNW,328,1.0,2.0,96,0.00,,,0.12,Wunderground v.1.15,2013-10-28 13:15:00,
2013-10-28 09:21:00,51.1,50.0,30.12,NNW,337,1.0,1.0,96,0.00,,,0.12,Wunderground v.1.15,2013-10-28 13:21:00,
2013-10-28 09:27:00,51.2,50.1,30.13,North,5,1.0,2.0,96,0.00,,,0.12,Wunderground v.1.15,2013-10-28 13:27:00,
2013-10-28 09:33:00,51.3,50.2,30.13,North,5,0.0,0.0,96,0.00,,,0.12,Wunderground v.1.15,2013-10-28 13:33:00,
2013-10-28 09:38:00,51.3,50.2,30.13,NNW,338,0.0,1.0,96,0.00,,,0.12,Wunderground v.1.15,2013-10-28 13:38:00,
2013-10-28 09:43:00,51.5,50.4,30.14,NNW,348,0.0,1.0,96,0.00,,,0.12,Wunderground v.1.15,2013-10-28 13:43:00,
2013-10-28 09:48:00,51.6,50.5,30.14,NNW,332,0.0,0.0,96,0.00,,,0.12,Wunderground v.1.15,2013-10-28 13:48:00,
2013-10-28 09:54:00,51.8,50.7,30.14,NNW,331,0.0,0.0,96,0.00,,,0.12,Wunderground v.1.15,2013-10-28 13:54:00,
2013-10-28 10:00:00,51.9,50.8,30.15,North,355,0.0,0.0,96,0.00,,,0.12,Wunderground v.1.15,2013-10-28 14:00:00,
2013-10-28 10:06:00,52.1,51.0,30.15,North,355,0.0,2.0,96,0.00,,,0.12,Wunderground v.1.15,2013-10-28 14:06:00,
2013-10-28 10:12:00,52.3,50.9,30.15,North,350,1.0,1.0,95,0.00,,,0.12,Wunderground v.1.15,2013-10-28 14:12:00,
2013-10-28 10:18:00,52.6,51.2,30.15,NNW,333,0.0,1.0,95,0.00,,,0.12,Wunderground v.1.15,2013-10-28 14:18:00,
2013-10-28 10:24:00,52.8,51.4,30.15,NNW,333,0.0,2.0,95,0.00,,,0.12,Wunderground v.1.15,2013-10-28 14:24:00,
2013-10-28 10:30:00,53.1,51.7,30.15,NW,326,0.0,0.0,95,0.00,,,0.12,Wunderground v.1.15,2013-10-28 14:30:00,
2013-10-28 10:36:00,53.3,51.9,30.15,NW,326,0.0,0.0,95,0.00,,,0.12,Wunderground v.1.15,2013-10-28 14:36:00,
2013-10-28 10:41:00,53.5,52.1,30.16,NW,326,0.0,0.0,95,0.00,,,0.12,Wunderground v.1.15,2013-10-28 14:41:00,
2013-10-28 10:48:00,53.8,52.4,30.15,NW,326,0.0,0.0,95,0.00,,,0.12,Wunderground v.1.15,2013-10-28 14:48:00,
2013-10-28 10:54:00,54.0,52.9,30.16,NW,326,0.0,0.0,96,0.00,,,0.12,Wunderground v.1.15,2013-10-28 14:54:00,
2013-10-28 10:59:00,54.2,53.1,30.16,NW,326,0.0,4.0,96,0.00,,,0.12,Wunderground v.1.15,2013-10-28 14:59:00,
2013-10-28 11:05:00,54.4,53.0,30.15,NW,326,0.0,0.0,95,0.00,,,0.12,Wunderground v.1.15,2013-10-28 15:05:00,
2013-10-28 11:11:00,54.4,53.0,30.15,NW,326,0.0,0.0,95,0.00,,,0.12,Wunderground v.1.15,2013-10-28 15:11:00,
2013-10-28 11:16:00,54.5,53.1,30.15,NW,326,0.0,0.0,95,0.00,,,0.12,Wunderground v.1.15,2013-10-28 15:16:00,
2013-10-28 11:21:00,54.6,53.2,30.16,NW,326,0.0,0.0,95,0.00,,,0.12,Wunderground v.1.15,2013-10-28 15:21:00,
2013-10-28 11:27:00,54.7,53.3,30.15,NW,326,0.0,0.0,95,0.00,,,0.12,Wunderground v.1.15,2013-10-28 15:27:00,
2013-10-28 11:32:00,54.8,53.4,30.15,NW,326,0.0,0.0,95,0.00,,,0.12,Wunderground v.1.15,2013-10-28 15:32:00,
2013-10-28 11:38:00,55.0,53.6,30.15,NW,326,0.0,0.0,95,0.00,,,0.12,Wunderground v.1.15,2013-10-28 15:38:00,
2013-10-28 11:44:00,55.0,53.0,30.15,NW,326,0.0,0.0,93,0.00,,,0.12,Wunderground v.1.15,2013-10-28 15:44:00,
2013-10-28 11:50:00,55.3,53.6,30.15,NW,326,0.0,0.0,94,0.00,,,0.12,Wunderground v.1.15,2013-10-28 15:50:00,
2013-10-28 11:56:00,55.7,54.3,30.15,NW,326,0.0,1.0,95,0.00,,,0.12,Wunderground v.1.15,2013-10-28 15:56:00,
2013-10-28 12:02:00,56.0,54.6,30.15,NW,326,0.0,0.0,95,0.00,,,0.12,Wunderground v.1.15,2013-10-28 16:02:00,
2013-10-28 12:08:00,56.3,54.9,30.15,NW,326,0.0,0.0,95,0.00,,,0.12,Wunderground v.1.15,2013-10-28 16:08:00,
2013-10-28 12:14:00,56.6,55.2,30.16,NW,326,0.0,0.0,95,0.00,,,0.12,Wunderground v.1.15,2013-10-28 16:14:00,
2013-10-28 12:19:00,56.8,55.1,30.15,NW,326,0.0,0.0,94,0.00,,,0.12,Wunderground v.1.15,2013-10-28 16:19:00,
2013-10-28 12:25:00,57.0,54.1,30.15,NW,326,0.0,0.0,90,0.00,,,0.12,Wunderground v.1.15,2013-10-28 16:25:00,
2013-10-28 12:31:00,57.5,54.9,30.15,NW,326,0.0,1.0,91,0.00,,,0.12,Wunderground v.1.15,2013-10-28 16:31:00,
2013-10-28 12:36:00,57.9,55.3,30.15,NW,326,0.0,1.0,91,0.00,,,0.12,Wunderground v.1.15,2013-10-28 16:36:00,
2013-10-28 12:42:00,58.1,53.3,30.15,NW,326,0.0,0.0,84,0.00,,,0.12,Wunderground v.1.15,2013-10-28 16:42:00,
2013-10-28 12:48:00,58.6,55.7,30.15,NW,326,0.0,0.0,90,0.00,,,0.12,Wunderground v.1.15,2013-10-28 16:48:00,
2013-10-28 12:54:00,58.8,56.2,30.14,NW,326,0.0,1.0,91,0.00,,,0.12,Wunderground v.1.15,2013-10-28 16:54:00,
2013-10-28 12:59:00,58.7,54.2,30.14,NNE,15,0.0,0.0,85,0.00,,,0.12,Wunderground v.1.15,2013-10-28 16:59:00,
2013-10-28 13:04:00,58.9,54.1,30.14,NNE,15,0.0,0.0,84,0.00,,,0.12,Wunderground v.1.15,2013-10-28 17:04:00,
2013-10-28 13:10:00,59.0,54.2,30.14,NNE,15,0.0,0.0,84,0.00,,,0.12,Wunderground v.1.15,2013-10-28 17:10:00,
2013-10-28 13:15:00,59.0,54.5,30.14,NNE,15,0.0,0.0,85,0.00,,,0.12,Wunderground v.1.15,2013-10-28 17:15:00,
2013-10-28 13:21:00,58.9,55.0,30.14,NNE,15,0.0,0.0,87,0.00,,,0.12,Wunderground v.1.15,2013-10-28 17:21:00,
2013-10-28 13:26:00,58.9,55.4,30.14,NNE,15,0.0,0.0,88,0.00,,,0.12,Wunderground v.1.15,2013-10-28 17:26:00,
2013-10-28 13:32:00,58.9,54.4,30.13,NNE,15,0.0,0.0,85,0.00,,,0.12,Wunderground v.1.15,2013-10-28 17:32:00,
2013-10-28 13:38:00,58.9,54.4,30.13,NNE,19,0.0,0.0,85,0.00,,,0.12,Wunderground v.1.15,2013-10-28 17:38:00,
2013-10-28 13:44:00,59.1,53.3,30.13,North,355,0.0,0.0,81,0.00,,,0.12,Wunderground v.1.15,2013-10-28 17:44:00,
2013-10-28 13:49:00,59.1,52.9,30.13,NE,48,0.0,0.0,80,0.00,,,0.12,Wunderground v.1.15,2013-10-28 17:49:00,
2013-10-28 13:55:00,59.2,53.4,30.13,NE,34,0.0,1.0,81,0.00,,,0.12,Wunderground v.1.15,2013-10-28 17:55:00,
2013-10-28 14:00:00,59.2,54.4,30.13,NE,34,0.0,0.0,84,0.00,,,0.12,Wunderground v.1.15,2013-10-28 18:00:00,
2013-10-28 14:06:00,59.1,55.2,30.12,NE,34,0.0,0.0,87,0.00,,,0.12,Wunderground v.1.15,2013-10-28 18:06:00,
2013-10-28 14:11:00,59.0,52.5,30.12,NNE,31,0.0,1.0,79,0.00,,,0.12,Wunderground v.1.15,2013-10-28 18:11:00,
2013-10-28 14:17:00,59.1,53.9,30.12,NNE,31,0.0,1.0,83,0.00,,,0.12,Wunderground v.1.15,2013-10-28 18:17:00,
2013-10-28 14:23:00,59.0,53.8,30.11,NNE,31,0.0,0.0,83,0.00,,,0.12,Wunderground v.1.15,2013-10-28 18:23:00,
2013-10-28 14:29:00,58.9,52.4,30.11,ENE,67,0.0,0.0,79,0.00,,,0.12,Wunderground v.1.15,2013-10-28 18:29:00,
2013-10-28 14:34:00,59.1,54.6,30.11,ENE,57,0.0,0.0,85,0.00,,,0.12,Wunderground v.1.15,2013-10-28 18:34:00,
2013-10-28 14:40:00,59.3,54.8,30.11,NE,55,0.0,2.0,85,0.00,,,0.12,Wunderground v.1.15,2013-10-28 18:40:00,
2013-10-28 14:48:00,59.5,52.3,30.10,NNE,22,1.0,1.0,77,0.00,,,0.12,Wunderground v.1.15,2013-10-28 18:48:00,
2013-10-28 14:54:00,59.8,52.9,30.10,NNE,22,1.0,1.0,78,0.00,,,0.12,Wunderground v.1.15,2013-10-28 18:54:00,
2013-10-28 14:59:00,60.2,53.3,30.10,NE,49,1.0,1.0,78,0.00,,,0.12,Wunderground v.1.15,2013-10-28 18:59:00,
2013-10-28 15:05:00,60.7,53.1,30.09,North,355,1.0,3.0,76,0.00,,,0.12,Wunderground v.1.15,2013-10-28 19:05:00,
2013-10-28 15:10:00,60.8,53.5,30.09,NE,47,1.0,2.0,77,0.00,,,0.12,Wunderground v.1.15,2013-10-28 19:10:00,
2013-10-28 15:16:00,60.9,54.3,30.09,ENE,73,1.0,2.0,79,0.00,,,0.12,Wunderground v.1.15,2013-10-28 19:16:00,
2013-10-28 15:21:00,61.0,53.0,30.09,NE,49,1.0,1.0,75,0.00,,,0.12,Wunderground v.1.15,2013-10-28 19:21:00,
2013-10-28 15:26:00,61.3,52.2,30.09,NE,38,1.0,1.0,72,0.00,,,0.12,Wunderground v.1.15,2013-10-28 19:26:00,
2013-10-28 15:31:00,61.4,53.4,30.09,NE,51,1.0,1.0,75,0.00,,,0.12,Wunderground v.1.15,2013-10-28 19:31:00,
2013-10-28 15:37:00,61.4,55.5,30.09,East,85,1.0,3.0,81,0.00,,,0.12,Wunderground v.1.15,2013-10-28 19:37:00,
2013-10-28 15:43:00,61.6,52.1,30.09,ENE,65,1.0,3.0,71,0.00,,,0.12,Wunderground v.1.15,2013-10-28 19:43:00,
2013-10-28 15:48:00,61.7,52.2,30.09,NE,55,1.0,1.0,71,0.00,,,0.12,Wunderground v.1.15,2013-10-28 19:48:00,
2013-10-28 15:54:00,61.6,52.1,30.09,NE,42,1.0,4.0,71,0.00,,,0.12,Wunderground v.1.15,2013-10-28 19:54:00,
2013-10-28 16:00:00,61.4,52.3,30.09,NE,56,1.0,1.0,72,0.00,,,0.12,Wunderground v.1.15,2013-10-28 20:00:00,
2013-10-28 16:06:00,61.3,51.0,30.09,NNW,340,1.0,3.0,69,0.00,,,0.12,Wunderground v.1.15,2013-10-28 20:06:00,
2013-10-28 16:11:00,61.4,51.5,30.09,NNW,343,1.0,3.0,70,0.00,,,0.12,Wunderground v.1.15,2013-10-28 20:11:00,
2013-10-28 16:17:00,61.3,52.9,30.09,ENE,57,0.0,3.0,74,0.00,,,0.12,Wunderground v.1.15,2013-10-28 20:17:00,
2013-10-28 16:23:00,61.0,51.1,30.09,North,9,0.0,1.0,70,0.00,,,0.12,Wunderground v.1.15,2013-10-28 20:23:00,
2013-10-28 16:28:00,60.9,51.8,30.09,North,9,0.0,1.0,72,0.00,,,0.12,Wunderground v.1.15,2013-10-28 20:28:00,
2013-10-28 16:33:00,60.9,52.2,30.09,North,9,0.0,0.0,73,0.00,,,0.12,Wunderground v.1.15,2013-10-28 20:33:00,
2013-10-28 16:39:00,60.7,52.7,30.09,NE,51,0.0,1.0,75,0.00,,,0.12,Wunderground v.1.15,2013-10-28 20:39:00,
2013-10-28 16:45:00,60.5,51.8,30.09,NE,51,0.0,0.0,73,0.00,,,0.12,Wunderground v.1.15,2013-10-28 20:45:00,
2013-10-28 16:50:00,60.5,53.6,30.09,NE,34,0.0,0.0,78,0.00,,,0.12,Wunderground v.1.15,2013-10-28 20:50:00,
2013-10-28 16:56:00,60.4,53.2,30.10,NE,34,0.0,6.0,77,0.00,,,0.12,Wunderground v.1.15,2013-10-28 20:56:00,
2013-10-28 17:01:00,60.1,53.6,30.10,NE,34,0.0,0.0,79,0.00,,,0.12,Wunderground v.1.15,2013-10-28 21:01:00,
2013-10-28 17:07:00,59.9,53.4,30.10,NE,34,0.0,0.0,79,0.00,,,0.12,Wunderground v.1.15,2013-10-28 21:07:00,
2013-10-28 17:12:00,59.7,52.1,30.11,NNE,14,0.0,0.0,76,0.00,,,0.12,Wunderground v.1.15,2013-10-28 21:12:00,
2013-10-28 17:18:00,59.5,52.3,30.10,NNE,15,0.0,1.0,77,0.00,,,0.12,Wunderground v.1.15,2013-10-28 21:18:00,
2013-10-28 17:23:00,59.4,52.2,30.11,NE,34,0.0,0.0,77,0.00,,,0.12,Wunderground v.1.15,2013-10-28 21:23:00,
2013-10-28 17:29:00,59.2,51.6,30.11,NE,34,0.0,0.0,76,0.00,,,0.12,Wunderground v.1.15,2013-10-28 21:29:00,
2013-10-28 17:35:00,59.0,51.8,30.11,NE,34,0.0,0.0,77,0.00,,,0.12,Wunderground v.1.15,2013-10-28 21:35:00,
2013-10-28 17:41:00,58.8,51.6,30.11,NE,34,0.0,0.0,77,0.00,,,0.12,Wunderground v.1.15,2013-10-28 21:41:00,
2013-10-28 17:48:00,58.7,52.2,30.11,NE,34,0.0,0.0,79,0.00,,,0.12,Wunderground v.1.15,2013-10-28 21:48:00,
2013-10-28 17:53:00,58.4,52.6,30.11,NE,34,0.0,0.0,81,0.00,,,0.12,Wunderground v.1.15,2013-10-28 21:53:00,
2013-10-28 17:59:00,58.2,51.4,30.11,NE,34,0.0,1.0,78,0.00,,,0.12,Wunderground v.1.15,2013-10-28 21:59:00,
2013-10-28 18:04:00,58.0,52.2,30.11,NE,34,0.0,0.0,81,0.00,,,0.12,Wunderground v.1.15,2013-10-28 22:04:00,
2013-10-28 18:09:00,58.0,52.5,30.11,NE,34,0.0,0.0,82,0.00,,,0.12,Wunderground v.1.15,2013-10-28 22:09:00,
2013-10-28 18:14:00,57.7,52.2,30.12,NE,34,0.0,0.0,82,0.00,,,0.12,Wunderground v.1.15,2013-10-28 22:14:00,
2013-10-28 18:20:00,57.6,52.1,30.12,NNE,15,0.0,0.0,82,0.00,,,0.12,Wunderground v.1.15,2013-10-28 22:20:00,
2013-10-28 18:25:00,57.4,52.3,30.11,NNE,15,0.0,0.0,83,0.00,,,0.12,Wunderground v.1.15,2013-10-28 22:25:00,
2013-10-28 18:31:00,57.2,52.1,30.11,NNE,15,0.0,0.0,83,0.00,,,0.12,Wunderground v.1.15,2013-10-28 22:31:00,
2013-10-28 18:37:00,57.1,52.6,30.11,NNE,15,0.0,0.0,85,0.00,,,0.12,Wunderground v.1.15,2013-10-28 22:37:00,
2013-10-28 18:43:00,56.9,52.4,30.11,NNE,15,0.0,0.0,85,0.00,,,0.12,Wunderground v.1.15,2013-10-28 22:43:00,
2013-10-28 18:48:00,56.7,52.6,30.11,NNE,15,0.0,0.0,86,0.00,,,0.12,Wunderground v.1.15,2013-10-28 22:48:00,
2013-10-28 18:54:00,56.3,52.2,30.12,NNE,15,0.0,0.0,86,0.00,,,0.12,Wunderground v.1.15,2013-10-28 22:54:00,
2013-10-28 19:00:00,56.1,52.0,30.12,NNE,15,0.0,0.0,86,0.00,,,0.12,Wunderground v.1.15,2013-10-28 23:00:00,
2013-10-28 19:06:00,55.9,51.8,30.13,NNE,15,0.0,0.0,86,0.00,,,0.12,Wunderground v.1.15,2013-10-28 23:06:00,
2013-10-28 19:12:00,55.8,52.0,30.13,NNE,31,0.0,0.0,87,0.00,,,0.12,Wunderground v.1.15,2013-10-28 23:12:00,
2013-10-28 19:18:00,55.7,51.9,30.13,NNE,31,0.0,0.0,87,0.00,,,0.12,Wunderground v.1.15,2013-10-28 23:18:00,
2013-10-28 19:24:00,55.6,52.1,30.13,NNE,31,0.0,0.0,88,0.00,,,0.12,Wunderground v.1.15,2013-10-28 23:24:00,
2013-10-28 19:30:00,55.5,52.0,30.14,NNE,31,0.0,0.0,88,0.00,,,0.12,Wunderground v.1.15,2013-10-28 23:30:00,
2013-10-28 19:35:00,55.5,52.3,30.14,NNE,31,0.0,0.0,89,0.00,,,0.12,Wunderground v.1.15,2013-10-28 23:35:00,
2013-10-28 19:40:00,55.5,52.0,30.14,NNE,31,0.0,0.0,88,0.00,,,0.12,Wunderground v.1.15,2013-10-28 23:40:00,
2013-10-28 19:48:00,55.5,51.7,30.14,NNE,31,0.0,0.0,87,0.00,,,0.12,Wunderground v.1.15,2013-10-28 23:48:00,
2013-10-28 19:54:00,55.5,51.7,30.15,North,9,0.0,1.0,87,0.00,,,0.12,Wunderground v.1.15,2013-10-28 23:54:00,
2013-10-28 19:59:00,55.4,51.6,30.15,North,9,0.0,0.0,87,0.00,,,0.12,Wunderground v.1.15,2013-10-28 23:59:00,
2013-10-28 20:04:00,55.4,51.6,30.15,North,9,0.0,1.0,87,0.00,,,0.12,Wunderground v.1.15,2013-10-29 00:04:00,
2013-10-28 20:09:00,55.4,51.6,30.15,North,9,0.0,1.0,87,0.00,,,0.12,Wunderground v.1.15,2013-10-29 00:09:00,
2013-10-28 20:15:00,55.4,51.6,30.15,North,9,0.0,0.0,87,0.00,,,0.12,Wunderground v.1.15,2013-10-29 00:15:00,
2013-10-28 20:21:00,55.4,51.6,30.15,North,9,0.0,0.0,87,0.00,,,0.12,Wunderground v.1.15,2013-10-29 00:21:00,
2013-10-28 20:27:00,55.3,51.8,30.15,North,9,0.0,0.0,88,0.00,,,0.12,Wunderground v.1.15,2013-10-29 00:27:00,
2013-10-28 20:33:00,55.3,51.8,30.15,North,9,0.0,0.0,88,0.00,,,0.12,Wunderground v.1.15,2013-10-29 00:33:00,
2013-10-28 20:39:00,55.2,51.7,30.15,North,9,0.0,0.0,88,0.00,,,0.12,Wunderground v.1.15,2013-10-29 00:39:00,
2013-10-28 20:44:00,55.1,51.6,30.16,North,9,0.0,0.0,88,0.00,,,0.12,Wunderground v.1.15,2013-10-29 00:44:00,
2013-10-28 20:50:00,55.0,51.5,30.16,North,9,0.0,0.0,88,0.00,,,0.12,Wunderground v.1.15,2013-10-29 00:50:00,
2013-10-28 20:55:00,54.9,51.4,30.16,North,9,0.0,0.0,88,0.00,,,0.12,Wunderground v.1.15,2013-10-29 00:55:00,
2013-10-28 21:00:00,54.9,51.7,30.16,North,9,0.0,0.0,89,0.00,,,0.12,Wunderground v.1.15,2013-10-29 01:00:00,
2013-10-28 21:06:00,54.9,52.0,30.16,North,9,0.0,0.0,90,0.00,,,0.12,Wunderground v.1.15,2013-10-29 01:06:00,
2013-10-28 21:12:00,54.8,51.6,30.16,North,9,0.0,0.0,89,0.00,,,0.12,Wunderground v.1.15,2013-10-29 01:12:00,
2013-10-28 21:18:00,54.8,51.9,30.16,North,9,0.0,0.0,90,0.00,,,0.12,Wunderground v.1.15,2013-10-29 01:18:00,
2013-10-28 21:24:00,54.7,51.8,30.16,North,9,0.0,0.0,90,0.00,,,0.12,Wunderground v.1.15,2013-10-29 01:24:00,
2013-10-28 21:30:00,54.6,51.7,30.16,North,9,0.0,0.0,90,0.00,,,0.12,Wunderground v.1.15,2013-10-29 01:30:00,
2013-10-28 21:35:00,54.5,51.6,30.16,North,9,0.0,0.0,90,0.00,,,0.12,Wunderground v.1.15,2013-10-29 01:35:00,
2013-10-28 21:41:00,54.5,51.6,30.16,North,9,0.0,0.0,90,0.00,,,0.12,Wunderground v.1.15,2013-10-29 01:41:00,
2013-10-28 21:48:00,54.3,51.7,30.17,North,9,0.0,0.0,91,0.00,,,0.12,Wunderground v.1.15,2013-10-29 01:48:00,
2013-10-28 21:54:00,54.3,51.7,30.17,North,9,0.0,0.0,91,0.00,,,0.12,Wunderground v.1.15,2013-10-29 01:54:00,
2013-10-28 21:59:00,54.2,51.6,30.17,North,9,0.0,0.0,91,0.00,,,0.12,Wunderground v.1.15,2013-10-29 01:59:00,
2013-10-28 22:04:00,54.1,51.2,30.17,North,9,0.0,0.0,90,0.00,,,0.12,Wunderground v.1.15,2013-10-29 02:04:00,
2013-10-28 22:09:00,53.9,51.0,30.17,North,9,0.0,0.0,90,0.00,,,0.12,Wunderground v.1.15,2013-10-29 02:09:00,
2013-10-28 22:15:00,53.7,51.1,30.17,North,9,0.0,0.0,91,0.00,,,0.12,Wunderground v.1.15,2013-10-29 02:15:00,
2013-10-28 22:21:00,53.5,50.9,30.17,North,9,0.0,0.0,91,0.00,,,0.12,Wunderground v.1.15,2013-10-29 02:21:00,
2013-10-28 22:27:00,53.3,50.7,30.17,North,9,0.0,0.0,91,0.00,,,0.12,Wunderground v.1.15,2013-10-29 02:27:00,
2013-10-28 22:33:00,53.1,50.5,30.18,North,9,0.0,0.0,91,0.00,,,0.12,Wunderground v.1.15,2013-10-29 02:33:00,
2013-10-28 22:38:00,52.8,50.2,30.18,North,9,0.0,0.0,91,0.00,,,0.12,Wunderground v.1.15,2013-10-29 02:38:00,
2013-10-28 22:44:00,52.6,50.0,30.18,North,9,0.0,0.0,91,0.00,,,0.12,Wunderground v.1.15,2013-10-29 02:44:00,
2013-10-28 22:50:00,52.3,50.0,30.19,North,9,0.0,1.0,92,0.00,,,0.12,Wunderground v.1.15,2013-10-29 02:50:00,
2013-10-28 22:56:00,52.0,49.7,30.19,North,9,0.0,1.0,92,0.00,,,0.12,Wunderground v.1.15,2013-10-29 02:56:00,
2013-10-28 23:02:00,51.9,49.6,30.18,North,9,0.0,0.0,92,0.00,,,0.12,Wunderground v.1.15,2013-10-29 03:02:00,
2013-10-28 23:07:00,51.7,49.5,30.18,North,9,0.0,0.0,92,0.00,,,0.12,Wunderground v.1.15,2013-10-29 03:07:00,
2013-10-28 23:12:00,51.6,49.6,30.18,North,9,0.0,0.0,93,0.00,,,0.12,Wunderground v.1.15,2013-10-29 03:12:00,
2013-10-28 23:17:00,51.4,49.2,30.18,NW,312,0.0,0.0,92,0.00,,,0.12,Wunderground v.1.15,2013-10-29 03:17:00,
2013-10-28 23:23:00,51.2,49.2,30.18,NW,311,0.0,0.0,93,0.00,,,0.12,Wunderground v.1.15,2013-10-29 03:23:00,
2013-10-28 23:29:00,51.0,49.0,30.18,NW,311,0.0,0.0,93,0.00,,,0.12,Wunderground v.1.15,2013-10-29 03:29:00,
2013-10-28 23:35:00,50.8,48.8,30.18,NW,311,0.0,0.0,93,0.00,,,0.12,Wunderground v.1.15,2013-10-29 03:35:00,
2013-10-28 23:41:00,50.6,48.7,30.18,NW,311,0.0,0.0,93,0.00,,,0.12,Wunderground v.1.15,2013-10-29 03:41:00,
2013-10-28 23:48:00,50.5,48.6,30.18,NW,311,0.0,0.0,93,0.00,,,0.12,Wunderground v.1.15,2013-10-29 03:48:00,
2013-10-28 23:54:00,50.3,48.4,30.19,NW,311,0.0,1.0,93,0.00,,,0.12,Wunderground v.1.15,2013-10-29 03:54:00,
2013-10-28 23:59:00,50.2,48.5,30.19,NW,311,0.0,0.0,94,0.00,,,0.12,Wunderground v.1.15,2013-10-29 03:59:00,